sat.trackr.live / text

‹ back to catalog

COSMOS 2532 (RODNIK-S *)

NORAD 43753 · 2018-097C

PAYLOAD ACTIVE UNKNOWN

§ Identity

Operator
Country
CIS
Launch date
2018-11-30
Launch site
PLMSC
Launch vehicle
Mass (kg)
RCS (m²)

External: N2YO · Heavens-Above · Gunter

§ Orbital elements

Epoch: 2026-09-04T03:38:39.446016Z

Period
115.86 min
Inclination
82.5175°
Eccentricity
0.0016585
Mean motion
12.42911639 rev/d
Perigee alt
1,481.2 km
Apogee alt
1,507.3 km
Semi-major
7,872.4 km
B*
1.7838e-4
RAAN
173.1188°
Arg perigee
245.1735°
Mean anomaly
114.7620°
Rev number
35,208

§ Raw data

COSMOS 2532 (RODNIK-S *)1 43753U 18097C   26247.15184544  .00000035  00000+0  17838-3 0  99972 43753  82.5175 173.1188 0016585 245.1735 114.7620 12.42911639352080

JSON: /api/v1/satellites/43753 · /tle

For live sub-satellite position, see the globe view (requires WebGL).

§ Visibility from observer

Set your observer location to see the next 7 days of passes ≥ 10°. The values pass through the URL so the page stays shareable.

No JS? Fill the form by hand. The geolocation button needs JavaScript.

§ Radio — SatNOGS DB

ModeDescriptionDownlinkUplink
FM UHF Unknown 387.175 MHz
FM UHF Unknown 388.687 MHz

2 transmitters · refreshed weekly from db.satnogs.org